www.pogodaiklimat.ru

Погода и климат >> Архив погоды >> Россия >> Забайкальский край >> Агинское


ПОГОДА в Агинском

  • Прогноз погоды в Агинском
  • Монитор погоды в Агинском
  • Климат города

АРХИВ ПОГОДЫ в Агинском

Время (UTC), дата Ветер
(напр.,м/с)
 
Видим.   Явления Облачность Т
(С)
Тd
(С)
f
(%)
Тe
(С)
Тes
(С)
Комфортность P
(гПа)
Po
(гПа)
Тmin
(С)
Tmax
(С)
R
(мм)
R24
(мм)
S
(см)
18 11.12 ЮЗ 4 50 км ясно -33.3 -37.7 64 -45 -45 опасность
обморожения
1045.2 949.5
21 11.12 ЮЗ 1 50 км ясно -34.3 -38.1 68 -39 -39 опасность
обморожения
1045.6 949.5
00 12.12 ЮЗ 1 50 км ясно -35.3 -39.2 67 -40 -40 опасность
обморожения
1046.4 949.9 -35.7 5
03 12.12 штиль 0 50 км ясно -30.0 -36.0 56 -30 -28 1044.4 950.0 -37.1
06 12.12 З 1 50 км ясно -23.3 -31.5 47 -27 -26 1041.1 949.4
09 12.12 З 2 50 км ясно -28.7 -34.2 59 -36 -36 опасность
обморожения
1043.0 949.3
12 12.12 ЮЗ 1 50 км ясно -33.0 -36.5 71 -37 -37 опасность
обморожения
1045.3 949.8 -22.6
15 12.12 ЮЗ 1 50 км ясно -35.8 -39.6 68 -41 -41 опасность
обморожения
1047.3 950.5
18 12.12 З 1 50 км ясно -36.8 -41.1 64 -42 -42 опасность
обморожения
1047.5 950.3
21 12.12 ЮЗ 1 50 км ясно -38.1 -42.5 63 -43 -43 опасность
обморожения
1048.3 950.3
00 13.12 штиль 0 50 км 3/0
[Ci fib]
-37.7 -42.1 63 -38 -38 опасность
обморожения
1048.1 950.3 -39.2 5
03 13.12 штиль 0 50 км 10/0
[Ci fib]
-32.6 -36.8 66 -33 -31 опасность
обморожения
1045.8 950.3
06 13.12 В 3 50 км 10/0
[Ac lent Ci fib]
-27.0 -32.2 61 -36 -36 опасность
обморожения
1041.7 948.7
09 13.12 В 2 50 км 10/0
[As trans]
-26.1 -30.6 66 -33 -33 опасность
обморожения
1041.7 948.8
12 13.12 Ю 1 50 км 10/0
[Cs]
-27.1 -30.6 72 -31 -31 опасность
обморожения
1041.9 948.8 -26.1
15 13.12 З 1 50 км ясно -31.8 -35.4 70 -36 -36 опасность
обморожения
1044.0 949.0
18 13.12 З 1 50 км ясно -32.9 -36.7 69 -37 -37 опасность
обморожения
1043.5 948.1
21 13.12 ЮЗ 1 50 км ясно -34.2 -37.9 69 -39 -39 опасность
обморожения
1042.3 946.6
00 14.12 ЮЗ 1 50 км 10/0
[Ac lent Ci fib]
-33.2 -37.0 69 -38 -38 опасность
обморожения
1041.3 946.0 -34.9 5
03 14.12 ЮЗ 1 10 км слабый снег 10/0
[Cs]
-27.4 -30.9 72 -31 -30 опасность
обморожения
1038.1 945.2
06 14.12 З 2 20 км слабый снег 10/0
[Cs]
-22.8 -26.7 70 -29 -28 1034.3 943.4
09 14.12 З 1 20 км слабый снег 10/0
[Ac lent Cs]
-22.0 -25.1 76 -25 -25 1033.9 943.3
12 14.12 З 1 20 км слабый снег 10/0
[Cs]
-23.6 -26.3 78 -27 -27 1034.7 943.5 -21.6 0.3
15 14.12 З 2 20 км слабый снег 10/0
[Cs]
-18.2 -20.6 81 -24 -24 1033.2 944.0
18 14.12 ЮЗ 2 20 км слабый снег 10/0
[Cs]
-18.3 -20.7 81 -24 -24 1032.7 943.5
21 14.12 СЗ 2 20 км слабый снег 10/0
[Cs]
-16.8 -20.5 73 -22 -22 1031.5 942.9
00 15.12 СЗ 2 20 км слабый снег 10/0
[Ac lent Cs]
-17.5 -21.3 72 -23 -23 1032.6 943.6 -23.9 0.2 5
03 15.12 СЗ 5 20 км слабый снег 10/0
[Cs]
-16.3 -20.6 69 -25 -25 1033.4 944.8
06 15.12 СЗ 6
{11}
50 км позёмок {снег, метель} 8/0
[Ac lent Ci fib]
-15.2 -22.0 56 -25 -25 1032.7 944.5
09 15.12 З 1
{11}
50 км {метель} 10/0
[Ac lent Ci fib]
-18.8 -24.3 62 -22 -22 1035.6 945.9
12 15.12 З 4
{11}
50 км {метель} ясно -19.3 -24.8 62 -28 -28 1036.7 946.8 -15.2 0.0
15 15.12 З 5 50 км ясно -20.4 -25.8 62 -31 -31 опасность
обморожения
1037.3 947.0
18 15.12 З 3 50 км ясно -20.2 -25.4 63 -28 -28 1036.8 946.6
21 15.12 СЗ 3 50 км ясно -20.6 -25.1 67 -28 -28 1035.4 945.2
00 16.12 З 2 50 км ясно -22.3 -25.4 76 -29 -29 1035.5 944.7 -23.3 5
03 16.12 З 1 50 км 6/0
[Ci fib]
-16.1 -22.4 58 -19 -18 1032.3 943.8
06 16.12 З 2 50 км 10/0
[Ci fib]
-12.5 -19.1 58 -17 -16 1028.1 941.1
09 16.12 штиль 0 50 км 10/0
[Ac lent Ci fib]
-15.0 -19.0 71 -15 -15 1027.2 939.5
12 16.12 З 1 50 км 6/0
[Ci fib]
-17.9 -20.6 79 -21 -21 1027.0 938.4 -11.8
15 16.12 З 1 50 км ясно -21.1 -23.6 80 -24 -24 1027.3 937.6
18 16.12 З 1 50 км ясно -22.1 -24.6 80 -25 -25 1026.6 936.6
21 16.12 СЗ 1 50 км 4/0
[Ci fib]
-20.9 -23.2 82 -24 -24 1025.0 935.5
00 17.12 ЮЗ 2 50 км 10/0
[Ac lent Ci fib]
-17.8 -20.4 80 -23 -23 1023.3 935.1 -22.8 5
03 17.12 ЮЗ 1 20 км слабый снег 10/0
[Cs]
-14.6 -17.2 81 -17 -16 1022.4 935.3
06 17.12 СЗ 5 50 км в посл. час снег 10/6 1000 м
[Cu med, cong Ci fib]
-8.6 -15.5 57 -16 -16 1020.4 935.3
09 17.12 СЗ 2 50 км 6/3 1000 м
[Sc diur, vesp Ci fib]
-14.6 -19.0 69 -20 -20 1024.3 937.0
12 17.12 З 1 50 км ясно -15.1 -19.9 67 -18 -18 1024.9 937.4 -8.6 0.0
15 17.12 СЗ 6-11
{12}
20 км слабый снег 10/0
[Cs]
-10.7 -16.1 64 -19 -19 1023.2 937.2
18 17.12 С 7-12
{12}
20 км слабый снег 10/0
[Cs]
-12.7 -15.8 78 -22 -22 1026.0 939.2
21 17.12 С 2
{12}
50 км {снег} ясно -16.9 -20.1 76 -22 -22 1030.9 942.3
00 18.12 СЗ 1
{12}
50 км {снег} ясно -25.0 -28.0 76 -29 -29 1037.0 945.1 -25.9 0.6 5
03 18.12 ЮЗ 1 50 км ясно -20.1 -26.7 56 -23 -22 1037.1 946.9 -26.7
06 18.12 ЮЗ 2 50 км ясно -16.6 -26.7 41 -22 -21 1034.5 945.7
09 18.12 штиль 0 50 км ясно -20.8 -26.5 60 -21 -21 1036.2 945.9
12 18.12 З 1 50 км ясно -27.5 -30.6 75 -31 -31 опасность
обморожения
1037.9 945.1 -13.7
15 18.12 З 1 50 км ясно -27.3 -30.3 76 -31 -31 опасность
обморожения
1036.1 943.4

 

Местоположение метеостанции Агинское (Забайкальский край, Россия): широта 51.10 долгота 114.50 высота над уровнем моря 681 м.

В архиве по умолчанию представлена погода в Агинском за последнюю неделю. Архивные данные за месяц целиком и за предыдущие месяцы, начиная с января 2011 года, Вы можете получить, выбрав интересующий диапазон дат из раскрывающегося списка и нажав кнопку "Ввод!".

Внимание! Время в таблицах - всемирное. Для получения местного времени необходимо прибавить поправку, которая в Агинском равна 9 ч.

Смотрите также архив погоды в соседних городах и на ближайших метеорологических станциях:

Погода в Могойтуе (Забайкальский край, Россия) (38 км)
Погода в Курорт-Дарасуне (Забайкальский край, Россия) (57 км)
Погода в Карымской (Забайкальский край, Россия) (61 км)
Погода в Оловянной (Забайкальский край, Россия) (72 км)
Погода в Нижнем Цасучее (Забайкальский край, Россия) (78 км)
Погода в Дульдурге (Забайкальский край, Россия) (84 км)
Погода в Бырке (Забайкальский край, Россия) (111 км)
Погода в Акше (Забайкальский край, Россия) (130 км)
Погода в Чите (Забайкальский край, Россия) (133 км)
Погода в Шилке (Забайкальский край, Россия) (135 км)

Пояснения к столбцам:

Ветер - указаны скорость ветра в м/с - средняя за 10 мин, порывы в срок и между сроками (в фигурных скобках) и направление, откуда дует ветер: С - северный, СВ - северо-восточный, В - восточный, ЮВ - юго-восточный, Ю - южный, ЮЗ - юго-западный, З - западный, СЗ - северо-западный.
Видимость - горизонтальная дальность видимости в метрах или километрах. При видимости от 1 до 10 км при отсутствии осадков обычно наблюдается дымка, при ухудшении видимости до 1 км и менее - туман. В сухую погоду видимость может ухудшаться дымом, пылью или мглою.
Явления - указаны атмосферные явления, наблюдавшиеся в срок или в последний час перед сроком; фигурными скобками обозначены явления, наблюдавшиеся между сроками (за 1-3 часа до срока); квадратными скобками обозначены град или гололедные отложения с указанием их диаметра в мм.
Облачность - указаны через наклонную черту общая и нижняя облачность в баллах и высота нижней границы облаков в метрах; квадратными скобками обозначены формы облаков: Ci - перистые, Cs - перисто-слоистые, Cc - перисто-кучевые, Ac - высококучевые, As - высокослоистые, Sc - слоисто-кучевые, Ns - слоисто-дождевые, Cu - кучевые, Cb - кучево-дождевые. Подробнее классификацию облаков см. в Атласе облаков (PDF).
T - Температура воздуха - температура, измеренная на высоте 2 м над землей.
Td - Температура точки росы - температура, при понижении до которой содержащийся в воздухе водяной пар достигнет насыщения.
f - Относительная влажность воздуха - влажноcть воздуха, измеренная на высоте 2 м над землей.
Te - Эффективная температура - температура, которую ощущает одетый по сезону человек в тени. Характеристика душности погоды. При расчете учитывается влияние влажности воздуха и скорости ветра на теплоощущения человека.
Tes - Эффективная температура на солнце - температура, которую ощущает человек, с поправкой на солнечный нагрев. Характеристика знойности погоды. Зависит от высоты солнца над горизонтом, облачности и скорости ветра. Ночью, в пасмурную погоду, а также при ветре 12 м/с и более поправка равна нулю.
P - Атмосферное давление - приведенное к уровню моря атмосферное давление.
Po - Атмосферное давление - измеренное на уровне метеостанции атмосферное давление.
Tmin - Минимальная температура - минимум температуры воздуха на высоте 2 м над землей.
Tmax - Максимальная температура - максимум температуры воздуха на высоте 2 м над землей.
R - Количество осадков - Количество выпавших осадков за период времени, мм. При наведении курсора мыши на число - период времени, за который выпало указанное количество осадков.
R24 - Количество осадков - Количество выпавших осадков за 24 часа, мм.
S - Снежный покров - Высота снежного покрова, см. При наведении курсора мыши на число - состояние снежного покрова и степень покрытия местности в баллах.